When you browse on this site, cookies collect data to enhance your experience and personalize the content and advertising you see.
Visit our Privacy Policy to learn more. By continuing to use the site, you agree to this use of cookies and data.
  • In Hungary
  • List of Countries
  • For 7 days
  • Water Temperature
  • Weather Map
  • News
  • Weather Widgets
  • user-avatar
    Login

    Hourly Weather Antіshki (Hor'koho)

    Today, 12 December, Thursday

    Time Temperature Precipitation Wind Pressure Humidity
    00:00 +1°C° 0 mm 2 mps 753 mmHg 96%
    01:00 +1°C° 0 mm 2 mps 753 mmHg 97%
    02:00 +2°C° 0 mm 2 mps 753 mmHg 97%
    03:00 +2°C° 0 mm 2 mps 752 mmHg 97%
    04:00 +2°C° 0 mm 2 mps 752 mmHg 97%
    05:00 +2°C° 0 mm 2 mps 752 mmHg 97%
    06:00 +1°C° 0 mm 3 mps 752 mmHg 97%
    07:00 +1°C° 0 mm 3 mps 752 mmHg 97%
    08:00 +2°C° 0 mm 3 mps 752 mmHg 96%
    09:00 +2°C° 0 mm 3 mps 752 mmHg 95%
    10:00 +2°C° 0 mm 3 mps 752 mmHg 93%
    11:00 +1°C° 0 mm 4 mps 751 mmHg 91%
    12:00 +3°C° 0 mm 4 mps 751 mmHg 89%
    13:00 +3°C° 0 mm 4 mps 751 mmHg 87%
    14:00 +3°C° 0 mm 4 mps 751 mmHg 85%
    15:00 +3°C° 0 mm 4 mps 750 mmHg 87%
    16:00 +1°C° 0 mm 4 mps 750 mmHg 88%
    17:00 +1°C° 0 mm 4 mps 750 mmHg 89%
    18:00 +1°C° 0 mm 4 mps 750 mmHg 88%
    19:00 +1°C° 0 mm 4 mps 750 mmHg 86%
    20:00 0°C° 0 mm 4 mps 750 mmHg 85%
    21:00 0°C° 0 mm 4 mps 750 mmHg 84%
    22:00 0°C° 0 mm 4 mps 749 mmHg 84%
    23:00 0°C° 0 mm 4 mps 749 mmHg 83%

    Tomorrow, 13 December, Friday

    Time Temperature Precipitation Wind Pressure Humidity
    00:00 0°C° 0 mm 4 mps 749 mmHg 84%
    01:00 0°C° 0 mm 4 mps 749 mmHg 85%
    02:00 0°C° 0 mm 4 mps 748 mmHg 86%
    03:00 0°C° 0 mm 4 mps 748 mmHg 87%
    04:00 -1°C° 0 mm 4 mps 747 mmHg 88%
    05:00 -1°C° 0 mm 5 mps 747 mmHg 89%
    06:00 -1°C° 0 mm 5 mps 747 mmHg 88%
    07:00 -1°C° 0 mm 5 mps 747 mmHg 88%
    08:00 -1°C° 0 mm 5 mps 747 mmHg 87%
    09:00 -1°C° 0 mm 5 mps 746 mmHg 84%
    10:00 -1°C° 0 mm 5 mps 746 mmHg 82%
    11:00 -1°C° 0 mm 6 mps 746 mmHg 80%
    12:00 -1°C° 0 mm 6 mps 745 mmHg 79%
    13:00 0°C° 0 mm 5 mps 745 mmHg 78%
    14:00 0°C° 0 mm 5 mps 745 mmHg 77%
    15:00 0°C° 0 mm 5 mps 744 mmHg 78%
    16:00 0°C° 0 mm 5 mps 744 mmHg 79%
    17:00 -1°C° 0 mm 6 mps 744 mmHg 80%
    18:00 -1°C° 0 mm 6 mps 744 mmHg 80%
    19:00 -1°C° 0 mm 6 mps 744 mmHg 80%
    20:00 -1°C° 0 mm 6 mps 744 mmHg 80%
    21:00 -1°C° 0 mm 6 mps 744 mmHg 79%
    22:00 -1°C° 0 mm 6 mps 744 mmHg 79%
    23:00 -1°C° 0 mm 6 mps 744 mmHg 78%

    Day after tomorrow, 14 December, Saturday

    Time Temperature Precipitation Wind Pressure Humidity
    00:00 0°C° 0 mm 5 mps 744 mmHg 79%
    01:00 -1°C° 0 mm 5 mps 744 mmHg 79%
    02:00 -1°C° 0 mm 5 mps 744 mmHg 79%
    03:00 -1°C° 0 mm 5 mps 744 mmHg 81%
    04:00 -1°C° 0 mm 5 mps 744 mmHg 82%
    05:00 -1°C° 0 mm 5 mps 743 mmHg 83%
    06:00 -1°C° 0 mm 5 mps 744 mmHg 86%
    07:00 -1°C° 0 mm 5 mps 744 mmHg 90%
    08:00 -1°C° 0 mm 5 mps 744 mmHg 93%
    09:00 -1°C° 0.2 mm 5 mps 744 mmHg 92%
    10:00 -1°C° 0.2 mm 5 mps 744 mmHg 92%
    11:00 0°C° 0.2 mm 5 mps 744 mmHg 91%
    12:00 0°C° 0.1 mm 5 mps 744 mmHg 91%
    13:00 0°C° 0.1 mm 4 mps 744 mmHg 92%
    14:00 0°C° 0.1 mm 4 mps 744 mmHg 92%
    15:00 +1°C° 0 mm 3 mps 744 mmHg 93%
    16:00 +2°C° 0 mm 3 mps 744 mmHg 94%
    17:00 +2°C° 0 mm 3 mps 744 mmHg 95%
    18:00 +2°C° 0 mm 3 mps 744 mmHg 96%
    19:00 +2°C° 0 mm 3 mps 745 mmHg 96%
    20:00 +2°C° 0 mm 3 mps 745 mmHg 97%
    21:00 +2°C° 0 mm 3 mps 745 mmHg 97%
    22:00 +3°C° 0 mm 3 mps 745 mmHg 97%
    23:00 +3°C° 0 mm 3 mps 745 mmHg 97%

    15 December, Sunday

    Time Temperature Precipitation Wind Pressure Humidity
    00:00 +3°C° 0.1 mm 3 mps 745 mmHg 98%
    01:00 +3°C° 0.1 mm 3 mps 745 mmHg 98%
    02:00 +4°C° 0.1 mm 3 mps 745 mmHg 98%
    03:00 +4°C° 0.3 mm 3 mps 745 mmHg 98%
    04:00 +4°C° 0.3 mm 3 mps 745 mmHg 98%
    05:00 +4°C° 0.3 mm 3 mps 745 mmHg 98%
    06:00 +4°C° 0.4 mm 3 mps 746 mmHg 98%
    07:00 +4°C° 0.4 mm 3 mps 746 mmHg 98%
    08:00 +4°C° 0.4 mm 3 mps 746 mmHg 98%
    09:00 +4°C° 0.2 mm 3 mps 746 mmHg 97%
    10:00 +5°C° 0.2 mm 3 mps 747 mmHg 96%
    11:00 +5°C° 0.2 mm 3 mps 747 mmHg 95%
    12:00 +5°C° 0 mm 3 mps 747 mmHg 92%
    13:00 +5°C° 0 mm 3 mps 748 mmHg 89%
    14:00 +6°C° 0 mm 2 mps 748 mmHg 86%
    15:00 +5°C° 0 mm 2 mps 748 mmHg 88%
    16:00 +5°C° 0 mm 2 mps 749 mmHg 90%
    17:00 +4°C° 0 mm 2 mps 749 mmHg 92%
    18:00 +4°C° 0 mm 2 mps 749 mmHg 91%
    19:00 +3°C° 0 mm 2 mps 750 mmHg 91%
    20:00 +2°C° 0 mm 3 mps 750 mmHg 90%
    21:00 +2°C° 0 mm 3 mps 750 mmHg 89%
    22:00 +2°C° 0 mm 3 mps 750 mmHg 87%
    23:00 +2°C° 0 mm 3 mps 750 mmHg 86%

    16 December, Monday

    Time Temperature Precipitation Wind Pressure Humidity
    00:00 +2°C° 0 mm 3 mps 750 mmHg 84%
    01:00 +1°C° 0 mm 4 mps 751 mmHg 81%
    02:00 +3°C° 0 mm 4 mps 751 mmHg 79%
    03:00 +3°C° 0 mm 4 mps 751 mmHg 78%
    04:00 +2°C° 0 mm 5 mps 751 mmHg 78%
    05:00 +1°C° 0 mm 5 mps 751 mmHg 77%
    06:00 +1°C° 0 mm 5 mps 751 mmHg 78%
    07:00 +1°C° 0 mm 4 mps 751 mmHg 80%
    08:00 +1°C° 0 mm 4 mps 751 mmHg 81%
    09:00 +1°C° 0 mm 4 mps 752 mmHg 80%
    10:00 +3°C° 0 mm 4 mps 752 mmHg 78%
    11:00 +4°C° 0 mm 4 mps 753 mmHg 77%
    12:00 +4°C° 0 mm 4 mps 753 mmHg 76%
    13:00 +4°C° 0 mm 3 mps 753 mmHg 76%
    14:00 +6°C° 0 mm 2 mps 753 mmHg 75%
    15:00 +5°C° 0 mm 2 mps 754 mmHg 79%
    16:00 +4°C° 0 mm 2 mps 754 mmHg 82%
    17:00 +3°C° 0 mm 2 mps 754 mmHg 85%
    18:00 +4°C° 0 mm 1 mps 754 mmHg 85%
    19:00 +4°C° 0 mm 1 mps 754 mmHg 85%
    20:00 +4°C° 0 mm 1 mps 755 mmHg 85%
    21:00 +4°C° 0 mm 1 mps 755 mmHg 84%
    22:00 +3°C° 0 mm 2 mps 755 mmHg 83%
    23:00 +3°C° 0 mm 2 mps 755 mmHg 83%

    17 December, Tuesday

    Time Temperature Precipitation Wind Pressure Humidity
    00:00 +3°C° 0 mm 2 mps 754 mmHg 82%
    01:00 +3°C° 0 mm 2 mps 754 mmHg 82%
    02:00 +1°C° 0 mm 3 mps 754 mmHg 82%
    03:00 +1°C° 0 mm 3 mps 753 mmHg 85%
    04:00 +1°C° 0 mm 3 mps 753 mmHg 87%
    05:00 0°C° 0 mm 3 mps 752 mmHg 90%
    06:00 +1°C° 0 mm 3 mps 752 mmHg 91%
    07:00 +1°C° 0 mm 3 mps 752 mmHg 93%
    08:00 +1°C° 0 mm 3 mps 752 mmHg 94%
    09:00 +1°C° 0 mm 4 mps 752 mmHg 94%
    10:00 +3°C° 0 mm 4 mps 752 mmHg 94%
    11:00 +4°C° 0 mm 4 mps 752 mmHg 94%
    12:00 +4°C° 0 mm 4 mps 752 mmHg 92%
    13:00 +4°C° 0 mm 4 mps 751 mmHg 91%
    14:00 +4°C° 0 mm 4 mps 751 mmHg 89%
    15:00 +4°C° 0 mm 3 mps 752 mmHg 90%
    16:00 +3°C° 0 mm 3 mps 752 mmHg 91%
    17:00 +3°C° 0 mm 2 mps 752 mmHg 92%
    18:00 +3°C° 0 mm 2 mps 752 mmHg 92%
    19:00 +3°C° 0 mm 2 mps 752 mmHg 91%
    20:00 +3°C° 0 mm 2 mps 752 mmHg 91%
    21:00 +3°C° 0 mm 2 mps 752 mmHg 90%
    22:00 +3°C° 0 mm 2 mps 752 mmHg 89%
    23:00 +3°C° 0 mm 2 mps 752 mmHg 89%
    Show more